Regional Weather Roundup
Issued by NWS Midland/Odessa, TX

Skip options and go directly to product.
Home | Oldest Version | Previous Version | Current Version | All | Graphics & Text | Save Text | Print | Product List | Glossary On

Skip product version selection by date and time.   
069
ASUS44 KMAF 201610
RWRMAF
MIDLAND AREA WEATHER ROUNDUP
NATIONAL WEATHER SERVICE MIDLAND TX
1000 AM CST SAT DEC 20 2014

...IN SOUTHWEST TEXAS AND SOUTHEAST NEW MEXICO...

CITY           SKY/WX    TMP DP  RH WIND       PRES   REMARKS
ALPINE         SUNNY     49  31  50 SW3       30.22S
ANDREWS        FOG       37  37 100 SE3       30.18R VSB 1/4
ARTESIA        SUNNY     34  27  75 S5        30.14S WCI  30
BIG SPRING     CLOUDY    41  40  93 SE6       30.22R WCI  38
CARLSBAD       FOG       32  31  96 CALM      30.14S VSB 1/4
DRYDEN           N/A     47  45  93 CALM      30.18R
FORT STOCKTON  SUNNY     50  31  48 CALM      30.16R
GUAD PASS      NOT AVBL
HOBBS          CLOUDY    36  36 100 SE3       30.16S
MARFA          SUNNY     43  30  61 S7        30.19R WCI  39
MIDLAND AIRPK  FOG       40  40 100 SE3       30.19R VSB 1/2
MIDLAND INTL   FOG       39  39 100 SE5       30.17R VSB<1/4 WCI  36
ODESSA         FOG       41  39  93 S5        30.18R VSB 3/4 WCI  38
PECOS          MOSUNNY   37  35  95 NW3       30.18R
PRESIDIO       FAIR      48  32  54 S3        30.18S
SEMINOLE       CLOUDY    38  38 100 CALM      30.18S FOG
SNYDER         CLOUDY    43  38  83 S7        30.21R WCI  39
WINK           FOG       37  34  89 N5        30.17R VSB 1/2 WCI  33
$$
...OTHER STATIONS IN TEXAS...

CITY           SKY/WX    TMP DP  RH WIND       PRES   REMARKS
ABILENE        CLOUDY    46  38  73 VRB3      30.23R
AMARILLO       FOG       32  31  96 SW9       30.12R VSB 1/4 WCI  24
AUSTIN         CLOUDY    50  46  86 N8        30.24S
BROWNSVILLE    CLOUDY    59  55  87 N10       30.19R
CORPUS CHRISTI CLOUDY    53  48  83 N10       30.22R
DALLAS FTW     DRIZZLE   44  42  93 NE7       30.26R FOG
DEL RIO        CLOUDY    51  45  79 SE12      30.21R
EL PASO        PTSUNNY   40  27  59 N6        30.17R WCI  36
HOUSTON INT    CLOUDY    53  49  86 N7        30.22R
LUBBOCK        CLOUDY    39  36  89 S8        30.16R FOG     WCI  33
SAN ANGELO     CLOUDY    46  41  82 E6        30.21R
SAN ANTONIO    CLOUDY    51  43  74 N8        30.25R
WACO           CLOUDY    49  44  83 N8        30.26R
WICHITA FALLS  NOT AVBL
$$
...OTHER LOCATIONS IN NEW MEXICO...

CITY           SKY/WX    TMP DP  RH WIND       PRES   REMARKS
ALAMAGORDO     MOSUNNY   32  28  86 SE7       30.17S WCI  26
ALBUQUERQUE    PTSUNNY   30  25  81 CALM      30.18S
CANNON AFB     SUNNY     31  26  81 W10       30.09R WCI  23
CLOVIS         SUNNY     28  27  93 SW5       30.10R WCI  23
HOLLOMAN AFB   MOSUNNY   32  26  78 SE5       30.16R WCI  27
ROSWELL        SUNNY     37  25  61 S8        30.12S WCI  31
RUIDOSO        SUNNY     36  16  44 NW12      30.13R WCI  27
SANTA FE       MOSUNNY   26  16  65 N17       30.12S WCI  13
TRUTH OR CONSE CLOUDY    34  24  67 N3        30.16S
TUCUMCARI      FOG       27  24  89 CALM      30.08S VSB 1/4
$$

USA.gov is the U.S. government's official web portal to all federal, state and local government web resources and services.